Total_Precipitation_Accumulation
1.49 1.60 1.42 1.38 1.25 1.56 1.93 2.15 2.21 2.36 2.45 2.41 2.10 1.85 1.76 1.59 1.38 1.53 1.84 2.05 2.11 1.98 2.01 2.01 1.74 1.61 1.58 1.36 1.18 1.08 0.96 0.88 0.78 0.65 0.58 0.53 0.44 0.28 0.16 0.14 0.16 0.19 0.15
1.66 1.73 1.68 1.58 1.36 1.51 1.85 2.21 2.30 2.52 2.48 2.50 2.00 1.75 1.68 1.67 1.45 1.34 1.47 1.82 1.83 1.74 1.74 1.90 1.95 1.91 1.84 1.63 1.41 1.23 1.07 0.96 0.86 0.70 0.59 0.56 0.48 0.38 0.30 0.22 0.20 0.21 0.18
1.89 2.07 1.96 1.65 1.49 1.68 1.87 1.91 2.03 2.49 2.33 2.26 2.06 2.03 1.97 1.76 1.55 1.42 1.38 1.47 1.47 1.60 1.61 1.65 1.83 1.96 2.04 1.98 1.81 1.56 1.32 1.07 0.88 0.73 0.61 0.53 0.48 0.41 0.39 0.33 0.29 0.29 0.23
1.72 1.89 1.63 1.32 1.48 1.76 1.90 1.81 1.82 2.19 2.22 2.20 2.16 2.07 1.96 1.76 1.53 1.44 1.40 1.30 1.26 1.12 1.29 1.50 1.70 1.85 2.08 2.16 2.20 2.16 1.89 1.44 1.07 0.82 0.66 0.57 0.51 0.42 0.33 0.30 0.31 0.34 0.26
1.08 1.20 1.03 0.98 1.21 1.48 1.49 1.32 1.45 1.71 1.80 1.87 1.83 1.62 1.43 1.25 1.13 1.11 1.07 1.01 1.10 1.09 1.12 1.21 1.49 1.66 1.95 2.33 2.56 2.64 2.45 1.91 1.38 1.09 0.90 0.75 0.69 0.54 0.37 0.30 0.33 0.33 0.28
0.75 0.83 0.82 0.79 0.88 0.92 0.94 1.10 1.25 1.40 1.29 1.36 1.30 1.09 1.05 0.91 0.84 0.81 0.70 0.70 0.78 0.79 0.83 1.02 1.24 1.16 1.49 1.94 2.26 2.47 2.49 2.27 1.77 1.42 1.21 1.06 1.00 0.75 0.48 0.39 0.39 0.33 0.27
0.64 0.64 0.61 0.63 0.69 0.69 0.68 0.83 0.95 0.96 0.79 0.95 1.03 0.81 0.66 0.59 0.57 0.57 0.52 0.51 0.53 0.58 0.71 0.91 1.04 1.03 1.01 1.15 1.41 1.81 2.20 2.34 2.18 1.83 1.50 1.31 1.24 0.98 0.66 0.52 0.45 0.36 0.33
0.54 0.53 0.50 0.48 0.49 0.52 0.54 0.60 0.71 0.72 0.63 0.74 0.84 0.77 0.57 0.50 0.45 0.34 0.37 0.38 0.38 0.49 0.56 0.69 0.89 1.08 1.07 1.19 1.01 1.28 1.89 2.23 2.40 2.30 2.00 1.67 1.46 1.17 0.85 0.72 0.59 0.47 0.41
0.33 0.33 0.32 0.32 0.34 0.39 0.42 0.49 0.57 0.60 0.54 0.52 0.63 0.73 0.57 0.43 0.39 0.34 0.34 0.36 0.43 0.47 0.51 0.66 0.77 0.98 1.14 1.33 1.29 1.19 1.43 1.72 2.25 2.60 2.50 2.02 1.47 1.11 0.92 0.89 0.83 0.63 0.48
0.23 0.23 0.21 0.21 0.22 0.25 0.33 0.35 0.44 0.55 0.54 0.44 0.47 0.55 0.55 0.51 0.44 0.39 0.37 0.35 0.40 0.43 0.49 0.56 0.70 0.88 1.01 1.23 1.30 1.12 1.03 1.22 1.75 2.32 2.53 2.36 1.80 1.28 1.04 1.06 1.20 1.06 0.75
0.24 0.23 0.22 0.21 0.21 0.21 0.24 0.28 0.36 0.46 0.52 0.47 0.44 0.50 0.59 0.57 0.49 0.45 0.38 0.39 0.43 0.37 0.46 0.59 0.70 0.79 0.88 1.11 1.37 1.24 1.14 1.07 1.17 1.46 1.77 2.05 2.10 1.82 1.55 1.50 1.67 1.71 1.48
0.26 0.25 0.25 0.26 0.26 0.26 0.26 0.26 0.28 0.33 0.45 0.53 0.53 0.51 0.56 0.56 0.46 0.43 0.35 0.32 0.40 0.39 0.52 0.70 0.76 0.83 0.89 1.09 1.15 1.13 1.06 0.93 0.83 0.84 1.01 1.24 1.50 1.67 1.63 1.69 1.92 2.10 2.16
0.20 0.22 0.23 0.25 0.28 0.30 0.31 0.28 0.29 0.28 0.36 0.46 0.49 0.52 0.52 0.51 0.54 0.55 0.51 0.41 0.43 0.47 0.62 0.75 0.87 0.94 0.95 1.09 1.09 1.03 0.87 0.72 0.59 0.54 0.61 0.74 0.89 1.13 1.37 1.53 1.74 2.00 2.20
0.20 0.20 0.20 0.19 0.22 0.27 0.32 0.34 0.32 0.33 0.36 0.38 0.39 0.52 0.57 0.51 0.61 0.65 0.68 0.72 0.63 0.63 0.77 0.85 0.98 1.03 1.13 1.16 1.08 0.97 0.78 0.66 0.52 0.46 0.44 0.47 0.55 0.63 0.81 1.02 1.24 1.51 1.77
0.22 0.20 0.20 0.20 0.22 0.24 0.28 0.32 0.32 0.34 0.38 0.39 0.41 0.51 0.59 0.65 0.69 0.66 0.76 0.84 0.85 0.78 0.84 0.92 0.88 0.88 0.93 0.94 0.88 0.75 0.63 0.57 0.49 0.42 0.40 0.39 0.41 0.46 0.53 0.60 0.67 0.75 0.85
0.20 0.20 0.20 0.19 0.20 0.21 0.23 0.27 0.29 0.35 0.42 0.47 0.54 0.59 0.61 0.67 0.76 0.69 0.75 0.82 0.84 0.89 0.92 0.87 0.78 0.79 0.76 0.65 0.62 0.57 0.53 0.57 0.47 0.38 0.33 0.34 0.35 0.38 0.41 0.46 0.50 0.55 0.60
0.15 0.15 0.16 0.18 0.19 0.22 0.25 0.31 0.34 0.38 0.48 0.60 0.69 0.73 0.75 0.77 0.81 0.79 0.85 0.86 0.81 0.89 0.89 0.75 0.81 0.87 0.77 0.59 0.48 0.46 0.47 0.50 0.47 0.44 0.38 0.35 0.31 0.29 0.32 0.35 0.40 0.44 0.47
0.16 0.14 0.14 0.15 0.15 0.16 0.22 0.32 0.42 0.44 0.47 0.55 0.77 0.99 1.01 1.01 0.93 0.85 0.93 0.91 0.87 1.01 0.97 0.86 0.94 0.97 0.91 0.73 0.58 0.49 0.42 0.42 0.45 0.45 0.40 0.39 0.36 0.31 0.27 0.27 0.28 0.30 0.32
0.17 0.16 0.16 0.16 0.14 0.13 0.15 0.23 0.35 0.40 0.49 0.63 0.79 0.92 1.04 1.16 1.06 0.96 0.94 0.93 0.96 1.05 1.03 0.93 0.97 1.11 1.14 0.95 0.70 0.49 0.38 0.38 0.40 0.45 0.41 0.36 0.36 0.35 0.32 0.27 0.25 0.25 0.24
0.17 0.19 0.19 0.18 0.17 0.15 0.14 0.19 0.27 0.35 0.48 0.66 0.72 0.67 0.78 1.04 1.14 1.07 0.95 0.90 0.94 0.99 1.00 1.01 1.06 1.20 1.25 1.19 0.93 0.65 0.48 0.38 0.34 0.37 0.42 0.38 0.35 0.34 0.33 0.29 0.26 0.25 0.26
0.24 0.26 0.26 0.24 0.23 0.19 0.15 0.21 0.30 0.26 0.31 0.39 0.43 0.43 0.49 0.66 0.93 1.10 1.04 0.94 0.94 0.92 0.92 1.01 1.09 1.18 1.21 1.24 1.08 0.82 0.62 0.51 0.41 0.38 0.41 0.39 0.36 0.31 0.29 0.29 0.27 0.24 0.22
0.43 0.45 0.43 0.40 0.37 0.27 0.22 0.21 0.23 0.25 0.27 0.30 0.32 0.35 0.35 0.35 0.46 0.68 0.90 1.02 1.07 1.00 0.92 0.96 1.09 1.14 1.14 1.14 1.12 0.98 0.76 0.59 0.48 0.44 0.46 0.45 0.46 0.42 0.32 0.27 0.27 0.24 0.21
0.67 0.67 0.63 0.59 0.55 0.52 0.40 0.29 0.24 0.25 0.26 0.27 0.31 0.34 0.28 0.24 0.33 0.42 0.56 0.70 0.83 0.89 0.90 0.95 1.01 1.10 1.17 1.26 1.25 1.09 0.90 0.76 0.61 0.54 0.53 0.50 0.49 0.49 0.46 0.38 0.37 0.29 0.25
0.89 0.84 0.78 0.73 0.73 0.68 0.53 0.38 0.31 0.25 0.27 0.31 0.35 0.39 0.38 0.35 0.37 0.44 0.51 0.52 0.56 0.61 0.65 0.72 0.82 0.98 1.17 1.34 1.45 1.35 1.20 0.97 0.82 0.73 0.67 0.55 0.48 0.46 0.46 0.46 0.45 0.39 0.32
0.92 0.84 0.79 0.80 0.81 0.81 0.67 0.49 0.41 0.39 0.42 0.42 0.43 0.44 0.44 0.41 0.38 0.34 0.41 0.44 0.45 0.47 0.52 0.59 0.66 0.83 1.10 1.32 1.40 1.43 1.29 1.08 0.88 0.75 0.68 0.60 0.52 0.48 0.48 0.42 0.40 0.40 0.36
1.02 0.98 0.90 0.90 0.92 0.95 0.84 0.58 0.49 0.49 0.52 0.52 0.57 0.57 0.47 0.43 0.38 0.30 0.35 0.42 0.40 0.42 0.50 0.55 0.60 0.64 0.77 1.05 1.29 1.19 1.11 1.04 0.88 0.71 0.54 0.53 0.54 0.53 0.48 0.38 0.33 0.32 0.30